Tracking 19224 objects as of 22-Jul-2018
HD Live streaming from Space Station
objects crossing your sky now

FENGYUN 1C DEB

Track FENGYUN 1C DEB now!
10-day predictions


NORAD ID: 37405
Int'l Code: 1999-025EFX
Perigee: 657.1 km
Apogee: 780.5 km
Inclination: 98.6 °
Period: 99.0 minutes
Semi major axis: 7089 km
RCS: 0.0122 m2 (small)
Launch date: May 10, 1999
Source: People's Republic of China (PRC)
Launch site: Taiyaun Space Center, China (TSC)

Note: This is SATELLITE DEBRIS
aabbcc
Your satellite tracking list
Your tracking list is empty




NASA's NSSDC Master Catalog

Two Line Element Set (TLE):
1 37405U 99025EFX 18201.98282031 +.00000907 +00000-0 +21531-3 0  9990
2 37405 098.5978 271.4784 0087072 338.3797 021.3731 14.54298154302324
Source of the keplerian elements: AFSPC